Location: Aydie
(43.5695°N, 0.1043°W)
Time: 12:16:48
(UTC+00:00)

SKYMED 2 - Pass Details

Date: 17 November 2025
Orbit: 621 x 623 km, 97.9° (Epoch: 06 December)

Event Time Altitude Azimuth Distance (km) Brightness Sun altitude
Exits shadow 17:44:58 - 20° (NNE) 2,592 6.4 -13.0°
Reaches altitude 10° 17:46:27 10° 24° (NNE) 2,000 5.8 -13.3°
Maximum altitude 17:50:40 47° 99° (E) 824 3.8 -14.0°
Drops below altitude 10° 17:54:50 10° 174° (S) 1,984 6.2 -14.7°
Sets 17:57:04 0° 180° (S) 2,885 7.2 -15.1°
